Hebron, NE

3:35 AM CST on February 20, 2017 (GMT -0600)
Hebron Municipal

Weather History for KHJH - April, 2013

Change the Weather History Date:

Sunday, April 28, 2013

  Actual Average Record
Temperature  
Mean Temperature 66 °F -  
Max Temperature 81 °F 67 °F 92 °F (1989)
Min Temperature 50 °F 41 °F 28 °F (1965)
Growing Degree Days 16 (Base 50)    
Moisture  
Dew Point 50 °F    
Average Humidity 62    
Maximum Humidity 90    
Minimum Humidity 31    
Precipitation  
Precipitation 0.00 in - - ()
Sea Level Pressure  
Sea Level Pressure 29.82 in    
Wind  
Wind Speed 11 mph (SSW)    
Max Wind Speed 20 mph    
Max Gust Speed 24 mph    
Visibility 10 miles    
Events      
Averages and records for this station are not official NWS values.
T = Trace of Precipitation, MM = Missing Value Source: NWS Daily Summary

Daily Weather History Graph

Daily Weather History Graph

Search for Another Location

Airport or City:

Trip Planner

Search our weather history database for the weather conditions in past years. The results will help you decide how hot, cold, wet, or windy it might be!

Date:

Astronomy

Apr. 28, 2013 Rise Set
Actual Time 6:33 AM CDT 8:22 PM CDT
Civil Twilight 6:04 AM CDT 8:51 PM CDT
Nautical Twilight 5:29 AM CDT 9:27 PM CDT
Astronomical Twilight 4:51 AM CDT 10:05 PM CDT
Moon 11:54 PM CDT (4/28) 8:51 AM CDT (4/28)
Length of Visible Light 14h 47m
Length of Day
13h 49m
Waning Gibbous, 88% of the Moon is Illuminated
Apr 28
Waning Gibbous
May 2
Last Quarter
May 9
New
May 17
First Quarter
May 24
Full

Hourly Weather History & Observations

Time (CDT) Temp. Dew Point Humidity Pressure Visibility Wind Dir Wind Speed Gust Speed Precip Events Conditions
12:15 AM 55.0 °F 49.1 °F 80% 29.96 in 10.0 mi South 9.2 mph - N/A   Clear
12:35 AM 54.5 °F 49.1 °F 82% 29.96 in 10.0 mi South 9.2 mph - N/A   Clear
12:55 AM 54.0 °F 48.7 °F 82% 29.96 in 10.0 mi South 8.1 mph - N/A   Clear
1:15 AM 54.1 °F 49.1 °F 83% 29.96 in 10.0 mi South 9.2 mph - N/A   Clear
1:35 AM 53.8 °F 48.6 °F 82% 29.95 in 10.0 mi South 9.2 mph - N/A   Clear
1:55 AM 53.6 °F 48.6 °F 83% 29.95 in 10.0 mi South 8.1 mph - N/A   Clear
2:15 AM 52.7 °F 48.2 °F 85% 29.95 in 10.0 mi SSW 6.9 mph - N/A   Clear
2:35 AM 52.3 °F 48.0 °F 85% 29.94 in 10.0 mi SSW 3.5 mph - N/A   Clear
2:55 AM 52.0 °F 48.0 °F 86% 29.93 in 10.0 mi SSW 4.6 mph - N/A   Clear
3:15 AM 51.8 °F 47.8 °F 86% 29.92 in 10.0 mi SSW 6.9 mph - N/A   Clear
3:35 AM 51.8 °F 47.7 °F 86% 29.92 in 10.0 mi SSW 8.1 mph - N/A   Clear
3:55 AM 51.1 °F 47.5 °F 87% 29.92 in 10.0 mi SSW 8.1 mph - N/A   Clear
4:15 AM 51.4 °F 47.8 °F 87% 29.92 in 10.0 mi SSW 9.2 mph - N/A   Clear
4:35 AM 51.4 °F 47.7 °F 87% 29.92 in 10.0 mi SSW 5.8 mph - N/A   Clear
4:55 AM 51.3 °F 47.7 °F 87% 29.92 in 10.0 mi SSW 6.9 mph - N/A   Clear
5:15 AM 50.9 °F 47.5 °F 88% 29.91 in 10.0 mi South 9.2 mph - N/A   Clear
5:35 AM 50.9 °F 47.5 °F 88% 29.91 in 10.0 mi South 8.1 mph - N/A   Clear
6:15 AM 50.9 °F 47.7 °F 89% 29.91 in 7.0 mi SSW 8.1 mph - N/A   Clear
6:35 AM 50.4 °F 47.5 °F 90% 29.90 in 7.0 mi South 9.2 mph - N/A   Clear
6:55 AM 50.4 °F 47.7 °F 90% 29.90 in 5.0 mi South 9.2 mph - N/A   Clear
7:15 AM 51.4 °F 48.6 °F 90% 29.90 in 5.0 mi South 8.1 mph - N/A   Clear
7:35 AM 52.5 °F 49.3 °F 89% 29.90 in 5.0 mi South 10.4 mph - N/A   Clear
8:15 AM 55.0 °F 50.9 °F 86% 29.90 in 7.0 mi South 11.5 mph - N/A   Clear
8:35 AM 55.4 °F 50.9 °F 85% 29.90 in 7.0 mi South 11.5 mph - N/A   Clear
8:55 AM 55.9 °F 51.1 °F 84% 29.90 in 7.0 mi South 10.4 mph - N/A   Clear
9:15 AM 59.0 °F 51.8 °F 77% 29.89 in 10.0 mi SSW 11.5 mph 18.4 mph N/A   Clear
9:35 AM 60.8 °F 51.6 °F 72% 29.88 in 10.0 mi South 13.8 mph - N/A   Clear
9:55 AM 63.5 °F 51.1 °F 64% 29.88 in 10.0 mi SSW 16.1 mph 19.6 mph N/A   Clear
10:15 AM 64.8 °F 50.0 °F 59% 29.87 in 10.0 mi SSW 13.8 mph 23.0 mph N/A   Clear
10:35 AM 65.7 °F 49.3 °F 55% 29.86 in 10.0 mi SSW 15.0 mph 20.7 mph N/A   Clear
10:55 AM 67.5 °F 49.8 °F 53% 29.85 in 10.0 mi SSW 16.1 mph - N/A   Clear
11:15 AM 69.1 °F 49.6 °F 50% 29.85 in 10.0 mi SSW 17.3 mph 21.9 mph N/A   Clear
11:35 AM 70.3 °F 50.4 °F 49% 29.84 in 10.0 mi SSW 11.5 mph 21.9 mph N/A   Clear
11:55 AM 71.4 °F 49.6 °F 46% 29.84 in 10.0 mi SSW 15.0 mph 21.9 mph N/A   Clear
12:15 PM 72.5 °F 49.1 °F 44% 29.83 in 10.0 mi SSW 15.0 mph 21.9 mph N/A   Clear
12:35 PM 73.9 °F 50.0 °F 43% 29.82 in 10.0 mi SSW 17.3 mph - N/A   Clear
12:55 PM 74.7 °F 48.9 °F 40% 29.82 in 10.0 mi SSW 15.0 mph 23.0 mph N/A   Clear
1:15 PM 76.3 °F 49.8 °F 39% 29.81 in 10.0 mi SSW 16.1 mph - N/A   Clear
1:55 PM 78.1 °F 49.1 °F 36% 29.79 in 10.0 mi South 16.1 mph 21.9 mph N/A   Clear
2:15 PM 79.0 °F 49.3 °F 35% 29.78 in 10.0 mi SSW 16.1 mph 20.7 mph N/A   Clear
2:35 PM 79.7 °F 49.3 °F 34% 29.78 in 10.0 mi SSW 17.3 mph 23.0 mph N/A   Clear
2:55 PM 80.6 °F 49.3 °F 33% 29.77 in 10.0 mi South 18.4 mph 21.9 mph N/A   Clear
3:15 PM 81.5 °F 49.5 °F 33% 29.77 in 10.0 mi SSW 13.8 mph 23.0 mph N/A   Clear
3:35 PM 79.9 °F 48.0 °F 33% 29.76 in 10.0 mi SSW 17.3 mph 21.9 mph N/A   Clear
3:55 PM 79.0 °F 48.6 °F 34% 29.75 in 10.0 mi South 16.1 mph 20.7 mph N/A   Clear
4:15 PM 79.2 °F 47.1 °F 32% 29.74 in 10.0 mi SSW 17.3 mph 23.0 mph N/A   Clear
4:35 PM 81.1 °F 47.5 °F 31% 29.73 in 10.0 mi SSW 18.4 mph 23.0 mph N/A   Clear
4:55 PM 80.8 °F 48.7 °F 33% 29.73 in 10.0 mi South 19.6 mph 24.2 mph N/A   Clear
5:15 PM 81.5 °F 49.5 °F 33% 29.72 in 10.0 mi SSW 15.0 mph 23.0 mph N/A   Clear
5:35 PM 81.1 °F 49.8 °F 33% 29.71 in 10.0 mi South 17.3 mph - N/A   Clear
5:55 PM 79.9 °F 51.8 °F 38% 29.71 in 10.0 mi South 12.7 mph - N/A   Clear
6:15 PM 80.8 °F 51.6 °F 36% 29.70 in 10.0 mi South 18.4 mph - N/A   Clear
6:35 PM 80.1 °F 51.1 °F 36% 29.70 in 10.0 mi South 17.3 mph - N/A   Clear
6:55 PM 79.2 °F 52.3 °F 39% 29.69 in 10.0 mi South 13.8 mph 20.7 mph N/A   Clear
7:35 PM 75.9 °F 53.2 °F 45% 29.69 in 10.0 mi South 10.4 mph - N/A   Clear
7:55 PM 74.7 °F 52.7 °F 46% 29.69 in 10.0 mi South 11.5 mph - N/A   Clear
8:15 PM 73.4 °F 52.7 °F 48% 29.69 in 10.0 mi SSE 8.1 mph - N/A   Clear
8:35 PM 70.9 °F 53.1 °F 53% 29.69 in 10.0 mi SSE 9.2 mph - N/A   Clear
8:55 PM 70.0 °F 52.9 °F 55% 29.69 in 10.0 mi SSE 9.2 mph - N/A   Clear
9:15 PM 69.1 °F 53.1 °F 57% 29.70 in 10.0 mi South 10.4 mph - N/A   Clear
9:35 PM 68.9 °F 52.9 °F 57% 29.70 in 10.0 mi South 11.5 mph - N/A   Clear
9:55 PM 68.9 °F 53.1 °F 57% 29.70 in 10.0 mi South 11.5 mph - N/A   Clear
10:15 PM 68.0 °F 53.8 °F 60% 29.71 in 10.0 mi South 10.4 mph - N/A   Clear
10:35 PM 67.5 °F 54.0 °F 62% 29.71 in 10.0 mi South 10.4 mph - N/A   Clear
10:55 PM 66.6 °F 54.3 °F 65% 29.71 in 10.0 mi South 9.2 mph - N/A   Clear
11:15 PM 65.3 °F 54.5 °F 68% 29.71 in 10.0 mi South 8.1 mph - N/A   Clear
11:35 PM 64.9 °F 54.5 °F 69% 29.71 in 10.0 mi South 5.8 mph - N/A   Clear
11:55 PM 62.6 °F 53.8 °F 73% 29.71 in 10.0 mi North 3.5 mph - N/A   Clear